Year,Month,Day,Hour,Minute,Value (Times are PST for temperature in C)
2006,04,22,00,00,7.20
2006,04,22,00,01,7.20
2006,04,22,00,02,7.20
2006,04,22,00,03,7.20
2006,04,22,00,04,7.10
2006,04,22,00,05,7.10
2006,04,22,00,06,7.10
2006,04,22,00,07,7.10
2006,04,22,00,08,7.10
2006,04,22,00,09,7.10
2006,04,22,00,10,7.00
2006,04,22,00,11,7.00
2006,04,22,00,12,7.00
2006,04,22,00,13,7.00
2006,04,22,00,14,7.00
2006,04,22,00,15,7.00
2006,04,22,00,16,7.00
2006,04,22,00,17,7.00
2006,04,22,00,18,7.00
2006,04,22,00,19,7.00
2006,04,22,00,20,7.00
2006,04,22,00,21,7.00
2006,04,22,00,22,7.00
2006,04,22,00,23,6.90
2006,04,22,00,24,6.90
2006,04,22,00,25,6.90
2006,04,22,00,26,6.90
2006,04,22,00,27,6.80
2006,04,22,00,28,6.80
2006,04,22,00,29,6.80
2006,04,22,00,30,6.80
2006,04,22,00,31,6.80
2006,04,22,00,32,6.80
2006,04,22,00,33,6.80
2006,04,22,00,34,6.80
2006,04,22,00,35,6.80
2006,04,22,00,36,6.80
2006,04,22,00,37,6.80
2006,04,22,00,38,6.80
2006,04,22,00,39,6.80
2006,04,22,00,40,6.80
2006,04,22,00,41,6.80
2006,04,22,00,42,6.70
2006,04,22,00,43,6.70
2006,04,22,00,44,6.70
2006,04,22,00,45,6.60
2006,04,22,00,46,6.60
2006,04,22,00,47,6.60
2006,04,22,00,48,6.60
2006,04,22,00,49,6.60
2006,04,22,00,50,6.60
2006,04,22,00,51,6.60
2006,04,22,00,52,6.50
2006,04,22,00,53,6.40
2006,04,22,00,54,6.40
2006,04,22,00,55,6.40
2006,04,22,00,56,6.40
2006,04,22,00,57,6.40
2006,04,22,00,58,6.40
2006,04,22,00,59,6.40
2006,04,22,01,00,6.40
2006,04,22,01,01,6.40
2006,04,22,01,02,6.40
2006,04,22,01,03,6.40
2006,04,22,01,04,6.40
2006,04,22,01,05,6.40
2006,04,22,01,06,6.40
2006,04,22,01,07,6.40
2006,04,22,01,08,6.40
2006,04,22,01,09,6.40
2006,04,22,01,10,6.40
2006,04,22,01,11,6.40
2006,04,22,01,12,6.40
2006,04,22,01,13,6.40
2006,04,22,01,14,6.40
2006,04,22,01,15,6.40
2006,04,22,01,16,6.30
2006,04,22,01,17,6.30
2006,04,22,01,18,6.20
2006,04,22,01,19,6.20
2006,04,22,01,20,6.10
2006,04,22,01,21,6.10
2006,04,22,01,22,6.00
2006,04,22,01,23,6.00
2006,04,22,01,24,5.90
2006,04,22,01,25,5.90
2006,04,22,01,26,5.90
2006,04,22,01,27,5.90
2006,04,22,01,28,5.90
2006,04,22,01,29,5.90
2006,04,22,01,30,5.90
2006,04,22,01,31,5.90
2006,04,22,01,32,5.90
2006,04,22,01,33,5.90
2006,04,22,01,34,5.90
2006,04,22,01,35,6.00
2006,04,22,01,36,6.00
2006,04,22,01,37,5.90
2006,04,22,01,38,5.90
2006,04,22,01,39,5.90
2006,04,22,01,40,5.90
2006,04,22,01,41,5.90
2006,04,22,01,42,5.90
2006,04,22,01,43,5.90
2006,04,22,01,44,5.90
2006,04,22,01,45,5.90
2006,04,22,01,46,5.90
2006,04,22,01,47,5.90
2006,04,22,01,48,5.90
2006,04,22,01,49,5.90
2006,04,22,01,50,5.90
2006,04,22,01,51,6.00
2006,04,22,01,52,6.00
2006,04,22,01,53,6.10
2006,04,22,01,54,6.10
2006,04,22,01,55,6.10
2006,04,22,01,56,6.20
2006,04,22,01,57,6.20
2006,04,22,01,58,6.20
2006,04,22,01,59,6.20
2006,04,22,02,00,6.20
2006,04,22,02,01,6.20
2006,04,22,02,02,6.20
2006,04,22,02,03,6.20
2006,04,22,02,04,6.20
2006,04,22,02,05,6.20
2006,04,22,02,06,6.10
2006,04,22,02,07,6.00
2006,04,22,02,08,6.00
2006,04,22,02,09,5.90
2006,04,22,02,10,5.80
2006,04,22,02,11,5.80
2006,04,22,02,12,5.70
2006,04,22,02,13,5.70
2006,04,22,02,14,5.60
2006,04,22,02,15,5.50
2006,04,22,02,16,5.50
2006,04,22,02,17,5.40
2006,04,22,02,18,5.40
2006,04,22,02,19,5.30
2006,04,22,02,20,5.30
2006,04,22,02,21,5.30
2006,04,22,02,22,5.30
2006,04,22,02,23,5.30
2006,04,22,02,24,5.20
2006,04,22,02,25,5.20
2006,04,22,02,26,5.20
2006,04,22,02,27,5.20
2006,04,22,02,28,5.20
2006,04,22,02,29,5.10
2006,04,22,02,30,5.10
2006,04,22,02,31,5.10
2006,04,22,02,32,5.10
2006,04,22,02,33,5.10
2006,04,22,02,34,5.10
2006,04,22,02,35,5.00
2006,04,22,02,36,4.90
2006,04,22,02,37,4.90
2006,04,22,02,38,4.90
2006,04,22,02,39,4.90
2006,04,22,02,40,4.90
2006,04,22,02,41,4.90
2006,04,22,02,42,4.80
2006,04,22,02,43,4.80
2006,04,22,02,44,4.80
2006,04,22,02,45,4.80
2006,04,22,02,46,4.80
2006,04,22,02,47,4.80
2006,04,22,02,48,4.70
2006,04,22,02,49,4.70
2006,04,22,02,50,4.70
2006,04,22,02,51,4.70
2006,04,22,02,52,4.70
2006,04,22,02,53,4.70
2006,04,22,02,54,4.70
2006,04,22,02,55,4.70
2006,04,22,02,56,4.70
2006,04,22,02,57,4.70
2006,04,22,02,58,4.60
2006,04,22,02,59,4.60
2006,04,22,03,00,4.60
2006,04,22,03,01,4.60
2006,04,22,03,02,4.60
2006,04,22,03,03,4.50
2006,04,22,03,04,4.50
2006,04,22,03,05,4.50
2006,04,22,03,06,4.40
2006,04,22,03,07,4.40
2006,04,22,03,08,4.40
2006,04,22,03,09,4.30
2006,04,22,03,10,4.30
2006,04,22,03,11,4.30
2006,04,22,03,12,4.30
2006,04,22,03,13,4.20
2006,04,22,03,14,4.20
2006,04,22,03,15,4.20
2006,04,22,03,16,4.20
2006,04,22,03,17,4.20
2006,04,22,03,18,4.20
2006,04,22,03,19,4.20
2006,04,22,03,20,4.20
2006,04,22,03,21,4.20
2006,04,22,03,22,4.20
2006,04,22,03,23,4.20
2006,04,22,03,24,4.20
2006,04,22,03,25,4.20
2006,04,22,03,26,4.20
2006,04,22,03,27,4.20
2006,04,22,03,28,4.20
2006,04,22,03,29,4.20
2006,04,22,03,30,4.20
2006,04,22,03,31,4.30
2006,04,22,03,32,4.30
2006,04,22,03,33,4.30
2006,04,22,03,34,4.40
2006,04,22,03,35,4.40
2006,04,22,03,36,4.50
2006,04,22,03,37,4.60
2006,04,22,03,38,4.60
2006,04,22,03,39,4.70
2006,04,22,03,40,4.80
2006,04,22,03,41,4.90
2006,04,22,03,42,5.00
2006,04,22,03,43,5.10
2006,04,22,03,44,5.10
2006,04,22,03,45,5.20
2006,04,22,03,46,5.20
2006,04,22,03,47,5.20
2006,04,22,03,48,5.30
2006,04,22,03,49,5.30
2006,04,22,03,50,5.40
2006,04,22,03,51,5.50
2006,04,22,03,52,5.50
2006,04,22,03,53,5.50
2006,04,22,03,54,5.60
2006,04,22,03,55,5.60
2006,04,22,03,56,5.60
2006,04,22,03,57,5.70
2006,04,22,03,58,5.70
2006,04,22,03,59,5.70
2006,04,22,04,00,5.70
2006,04,22,04,01,5.70
2006,04,22,04,02,5.70
2006,04,22,04,03,5.70
2006,04,22,04,04,5.70
2006,04,22,04,05,5.70
2006,04,22,04,06,5.70
2006,04,22,04,07,5.70
2006,04,22,04,08,5.70
2006,04,22,04,09,5.70
2006,04,22,04,10,5.70
2006,04,22,04,11,5.70
2006,04,22,04,12,5.70
2006,04,22,04,13,5.70
2006,04,22,04,14,5.70
2006,04,22,04,15,5.70
2006,04,22,04,16,5.70
2006,04,22,04,17,5.70
2006,04,22,04,18,5.60
2006,04,22,04,19,5.60
2006,04,22,04,20,5.60
2006,04,22,04,21,5.60
2006,04,22,04,22,5.60
2006,04,22,04,23,5.60
2006,04,22,04,24,5.50
2006,04,22,04,25,5.50
2006,04,22,04,26,5.50
2006,04,22,04,27,5.40
2006,04,22,04,28,5.40
2006,04,22,04,29,5.40
2006,04,22,04,30,5.30
2006,04,22,04,31,5.30
2006,04,22,04,32,5.30
2006,04,22,04,33,5.30
2006,04,22,04,34,5.30
2006,04,22,04,35,5.30
2006,04,22,04,36,5.30
2006,04,22,04,37,5.30
2006,04,22,04,38,5.20
2006,04,22,04,39,5.20
2006,04,22,04,40,5.20
2006,04,22,04,41,5.20
2006,04,22,04,42,5.10
2006,04,22,04,43,5.10
2006,04,22,04,44,5.10
2006,04,22,04,45,5.10
2006,04,22,04,46,5.10
2006,04,22,04,47,5.10
2006,04,22,04,48,5.00
2006,04,22,04,49,4.90
2006,04,22,04,50,4.90
2006,04,22,04,51,4.90
2006,04,22,04,52,4.90
2006,04,22,04,53,4.90
2006,04,22,04,54,4.80
2006,04,22,04,55,4.80
2006,04,22,04,56,4.80
2006,04,22,04,57,4.80
2006,04,22,04,58,4.80
2006,04,22,04,59,4.70
2006,04,22,05,00,4.70
2006,04,22,05,01,4.70
2006,04,22,05,02,4.80
2006,04,22,05,03,4.80
2006,04,22,05,04,4.80
2006,04,22,05,05,4.80
2006,04,22,05,06,4.80
2006,04,22,05,07,4.80
2006,04,22,05,08,4.80
2006,04,22,05,09,4.80
2006,04,22,05,10,4.80
2006,04,22,05,11,4.80
2006,04,22,05,12,4.90
2006,04,22,05,13,4.90
2006,04,22,05,14,4.90
2006,04,22,05,15,4.90
2006,04,22,05,16,4.90
2006,04,22,05,17,4.90
2006,04,22,05,18,4.90
2006,04,22,05,19,4.90
2006,04,22,05,20,4.90
2006,04,22,05,21,4.90
2006,04,22,05,22,4.90
2006,04,22,05,23,4.90
2006,04,22,05,24,4.90
2006,04,22,05,25,4.90
2006,04,22,05,26,5.00
2006,04,22,05,27,5.10
2006,04,22,05,28,5.10
2006,04,22,05,29,5.10
2006,04,22,05,30,5.10
2006,04,22,05,31,5.10
2006,04,22,05,32,5.20
2006,04,22,05,33,5.30
2006,04,22,05,34,5.30
2006,04,22,05,35,5.30
2006,04,22,05,36,5.30
2006,04,22,05,37,5.30
2006,04,22,05,38,5.30
2006,04,22,05,39,5.30
2006,04,22,05,40,5.30
2006,04,22,05,41,5.30
2006,04,22,05,42,5.30
2006,04,22,05,43,5.20
2006,04,22,05,44,5.20
2006,04,22,05,45,5.20
2006,04,22,05,46,5.20
2006,04,22,05,47,5.20
2006,04,22,05,48,5.20
2006,04,22,05,49,5.20
2006,04,22,05,50,5.20
2006,04,22,05,51,5.20
2006,04,22,05,52,5.20
2006,04,22,05,53,5.30
2006,04,22,05,54,5.30
2006,04,22,05,55,5.30
2006,04,22,05,56,5.30
2006,04,22,05,57,5.30
2006,04,22,05,58,5.30
2006,04,22,05,59,5.30
2006,04,22,06,00,5.30
2006,04,22,06,01,5.30
2006,04,22,06,02,5.30
2006,04,22,06,03,5.30
2006,04,22,06,04,5.40
2006,04,22,06,05,5.40
2006,04,22,06,06,5.40
2006,04,22,06,07,5.40
2006,04,22,06,08,5.50
2006,04,22,06,09,5.50
2006,04,22,06,10,5.60
2006,04,22,06,11,5.60
2006,04,22,06,12,5.60
2006,04,22,06,13,5.70
2006,04,22,06,14,5.70
2006,04,22,06,15,5.70
2006,04,22,06,16,5.70
2006,04,22,06,17,5.70
2006,04,22,06,18,5.70
2006,04,22,06,19,5.70
2006,04,22,06,20,5.70
2006,04,22,06,21,5.70
2006,04,22,06,22,5.70
2006,04,22,06,23,5.70
2006,04,22,06,24,5.70
2006,04,22,06,25,5.70
2006,04,22,06,26,5.70
2006,04,22,06,27,5.70
2006,04,22,06,28,5.70
2006,04,22,06,29,5.70
2006,04,22,06,30,5.70
2006,04,22,06,31,5.70
2006,04,22,06,32,5.70
2006,04,22,06,33,5.70
2006,04,22,06,34,5.70
2006,04,22,06,35,5.60
2006,04,22,06,36,5.60
2006,04,22,06,37,5.60
2006,04,22,06,38,5.60
2006,04,22,06,39,5.60
2006,04,22,06,40,5.60
2006,04,22,06,41,5.50
2006,04,22,06,42,5.50
2006,04,22,06,43,5.50
2006,04,22,06,44,5.50
2006,04,22,06,45,5.50
2006,04,22,06,46,5.50
2006,04,22,06,47,5.60
2006,04,22,06,48,5.60
2006,04,22,06,49,5.60
2006,04,22,06,50,5.60
2006,04,22,06,51,5.60
2006,04,22,06,52,5.70
2006,04,22,06,53,5.70
2006,04,22,06,54,5.70
2006,04,22,06,55,5.70
2006,04,22,06,56,5.70
2006,04,22,06,57,5.70
2006,04,22,06,58,5.70
2006,04,22,06,59,5.70
2006,04,22,07,00,5.70
2006,04,22,07,01,5.70
2006,04,22,07,02,5.80
2006,04,22,07,03,5.80
2006,04,22,07,04,5.80
2006,04,22,07,05,5.80
2006,04,22,07,06,5.80
2006,04,22,07,07,5.80
2006,04,22,07,08,5.90
2006,04,22,07,09,5.90
2006,04,22,07,10,5.90
2006,04,22,07,11,5.90
2006,04,22,07,12,5.90
2006,04,22,07,13,6.00
2006,04,22,07,14,6.00
2006,04,22,07,15,6.00
2006,04,22,07,16,6.00
2006,04,22,07,17,6.00
2006,04,22,07,18,6.00
2006,04,22,07,19,6.00
2006,04,22,07,20,6.00
2006,04,22,07,21,6.00
2006,04,22,07,22,6.00
2006,04,22,07,23,6.00
2006,04,22,07,24,6.00
2006,04,22,07,25,6.10
2006,04,22,07,26,6.10
2006,04,22,07,27,6.10
2006,04,22,07,28,6.20
2006,04,22,07,29,6.20
2006,04,22,07,30,6.20
2006,04,22,07,31,6.20
2006,04,22,07,32,6.20
2006,04,22,07,33,6.20
2006,04,22,07,34,6.30
2006,04,22,07,35,6.30
2006,04,22,07,36,6.40
2006,04,22,07,37,6.40
2006,04,22,07,38,6.40
2006,04,22,07,39,6.40
2006,04,22,07,40,6.50
2006,04,22,07,41,6.60
2006,04,22,07,42,6.60
2006,04,22,07,43,6.60
2006,04,22,07,44,6.60
2006,04,22,07,45,6.70
2006,04,22,07,46,6.70
2006,04,22,07,47,6.80
2006,04,22,07,48,6.80
2006,04,22,07,49,6.80
2006,04,22,07,50,6.80
2006,04,22,07,51,6.80
2006,04,22,07,52,6.90
2006,04,22,07,53,6.90
2006,04,22,07,54,7.00
2006,04,22,07,55,7.00
2006,04,22,07,56,7.10
2006,04,22,07,57,7.10
2006,04,22,07,58,7.10
2006,04,22,07,59,7.20
2006,04,22,08,00,7.20
2006,04,22,08,01,7.30
2006,04,22,08,02,7.30
2006,04,22,08,03,7.30
2006,04,22,08,04,7.30
2006,04,22,08,05,7.40
2006,04,22,08,06,7.50
2006,04,22,08,07,7.50
2006,04,22,08,08,7.50
2006,04,22,08,09,7.60
2006,04,22,08,10,7.60
2006,04,22,08,11,7.60
2006,04,22,08,12,7.60
2006,04,22,08,13,7.60
2006,04,22,08,14,7.60
2006,04,22,08,15,7.70
2006,04,22,08,16,7.70
2006,04,22,08,17,7.80
2006,04,22,08,18,7.80
2006,04,22,08,19,7.70
2006,04,22,08,20,7.70
2006,04,22,08,21,7.70
2006,04,22,08,22,7.70
2006,04,22,08,23,7.80
2006,04,22,08,24,7.80
2006,04,22,08,25,7.80
2006,04,22,08,26,7.90
2006,04,22,08,27,7.90
2006,04,22,08,28,7.90
2006,04,22,08,29,8.00
2006,04,22,08,30,8.00
2006,04,22,08,31,8.10
2006,04,22,08,32,8.10
2006,04,22,08,33,8.10
2006,04,22,08,34,8.10
2006,04,22,08,35,8.10
2006,04,22,08,36,8.00
2006,04,22,08,37,8.00
2006,04,22,08,38,8.00
2006,04,22,08,39,8.10
2006,04,22,08,40,8.10
2006,04,22,08,41,8.10
2006,04,22,08,42,8.10
2006,04,22,08,43,8.20
2006,04,22,08,44,8.20
2006,04,22,08,45,8.20
2006,04,22,08,46,8.20
2006,04,22,08,47,8.20
2006,04,22,08,48,8.20
2006,04,22,08,49,8.20
2006,04,22,08,50,8.20
2006,04,22,08,51,8.10
2006,04,22,08,52,8.00
2006,04,22,08,53,8.00
2006,04,22,08,54,8.10
2006,04,22,08,55,8.10
2006,04,22,08,56,8.10
2006,04,22,08,57,8.20
2006,04,22,08,58,8.20
2006,04,22,08,59,8.20
2006,04,22,09,00,8.20
2006,04,22,09,01,8.30
2006,04,22,09,02,8.30
2006,04,22,09,03,8.40
2006,04,22,09,04,8.50
2006,04,22,09,05,8.50
2006,04,22,09,06,8.50
2006,04,22,09,07,8.50
2006,04,22,09,08,8.50
2006,04,22,09,09,8.50
2006,04,22,09,10,8.50
2006,04,22,09,11,8.60
2006,04,22,09,12,8.70
2006,04,22,09,13,8.70
2006,04,22,09,14,8.70
2006,04,22,09,15,8.70
2006,04,22,09,16,8.70
2006,04,22,09,17,8.70
2006,04,22,09,18,8.80
2006,04,22,09,19,8.90
2006,04,22,09,20,8.90
2006,04,22,09,21,9.00
2006,04,22,09,22,9.10
2006,04,22,09,23,9.20
2006,04,22,09,24,9.20
2006,04,22,09,25,9.20
2006,04,22,09,26,9.20
2006,04,22,09,27,9.20
2006,04,22,09,28,9.20
2006,04,22,09,29,9.10
2006,04,22,09,30,9.10
2006,04,22,09,31,9.00
2006,04,22,09,32,9.00
2006,04,22,09,33,9.00
2006,04,22,09,34,9.00
2006,04,22,09,35,8.90
2006,04,22,09,36,9.00
2006,04,22,09,37,9.10
2006,04,22,09,38,9.10
2006,04,22,09,39,9.20
2006,04,22,09,40,9.20
2006,04,22,09,41,9.20
2006,04,22,09,42,9.20
2006,04,22,09,43,9.20
2006,04,22,09,44,9.30
2006,04,22,09,45,9.30
2006,04,22,09,46,9.40
2006,04,22,09,47,9.50
2006,04,22,09,48,9.50
2006,04,22,09,49,9.50
2006,04,22,09,50,9.50
2006,04,22,09,51,9.50
2006,04,22,09,52,9.50
2006,04,22,09,53,9.50
2006,04,22,09,54,9.50
2006,04,22,09,55,9.50
2006,04,22,09,56,9.50
2006,04,22,09,57,9.70
2006,04,22,09,58,9.70
2006,04,22,09,59,9.80
2006,04,22,10,00,9.80
2006,04,22,10,01,9.80
2006,04,22,10,02,9.80
2006,04,22,10,03,9.80
2006,04,22,10,04,9.80
2006,04,22,10,05,9.80
2006,04,22,10,06,9.80
2006,04,22,10,07,9.90
2006,04,22,10,08,9.90
2006,04,22,10,09,9.90
2006,04,22,10,10,9.90
2006,04,22,10,11,9.90
2006,04,22,10,12,10.00
2006,04,22,10,13,10.10
2006,04,22,10,14,10.10
2006,04,22,10,15,10.10
2006,04,22,10,16,10.10
2006,04,22,10,17,10.10
2006,04,22,10,18,10.10
2006,04,22,10,19,10.10
2006,04,22,10,20,10.10
2006,04,22,10,21,10.10
2006,04,22,10,22,10.10
2006,04,22,10,23,10.10
2006,04,22,10,24,10.00
2006,04,22,10,25,9.90
2006,04,22,10,26,9.90
2006,04,22,10,27,9.90
2006,04,22,10,28,9.90
2006,04,22,10,29,9.90
2006,04,22,10,30,9.90
2006,04,22,10,31,9.90
2006,04,22,10,32,9.90
2006,04,22,10,33,9.90
2006,04,22,10,34,10.00
2006,04,22,10,35,10.10
2006,04,22,10,36,10.10
2006,04,22,10,37,10.20
2006,04,22,10,38,10.30
2006,04,22,10,39,10.30
2006,04,22,10,40,10.30
2006,04,22,10,41,10.30
2006,04,22,10,42,10.30
2006,04,22,10,43,10.30
2006,04,22,10,44,10.30
2006,04,22,10,45,10.30
2006,04,22,10,46,10.30
2006,04,22,10,47,10.20
2006,04,22,10,48,10.20
2006,04,22,10,49,10.20
2006,04,22,10,50,10.20
2006,04,22,10,51,10.20
2006,04,22,10,52,10.30
2006,04,22,10,53,10.30
2006,04,22,10,54,10.30
2006,04,22,10,55,10.30
2006,04,22,10,56,10.40
2006,04,22,10,57,10.40
2006,04,22,10,58,10.40
2006,04,22,10,59,10.40
2006,04,22,11,00,10.50
2006,04,22,11,01,10.60
2006,04,22,11,02,10.60
2006,04,22,11,03,10.70
2006,04,22,11,04,10.80
2006,04,22,11,05,10.80
2006,04,22,11,06,10.80
2006,04,22,11,07,10.80
2006,04,22,11,08,10.80
2006,04,22,11,09,10.80
2006,04,22,11,10,10.80
2006,04,22,11,11,10.80
2006,04,22,11,12,10.80
2006,04,22,11,13,10.90
2006,04,22,11,14,11.20
2006,04,22,11,15,11.30
2006,04,22,11,16,11.40
2006,04,22,11,17,11.30
2006,04,22,11,18,11.30
2006,04,22,11,19,11.20
2006,04,22,11,20,11.20
2006,04,22,11,21,11.30
2006,04,22,11,22,11.30
2006,04,22,11,23,11.30
2006,04,22,11,24,11.40
2006,04,22,11,25,11.40
2006,04,22,11,26,11.40
2006,04,22,11,27,11.50
2006,04,22,11,28,11.40
2006,04,22,11,29,11.30
2006,04,22,11,30,11.30
2006,04,22,11,31,11.30
2006,04,22,11,32,11.40
2006,04,22,11,33,11.50
2006,04,22,11,34,11.60
2006,04,22,11,35,11.70
2006,04,22,11,36,11.80
2006,04,22,11,37,11.90
2006,04,22,11,38,12.00
2006,04,22,11,39,12.00
2006,04,22,11,40,12.00
2006,04,22,11,41,12.00
2006,04,22,11,42,12.10
2006,04,22,11,43,12.20
2006,04,22,11,44,12.30
2006,04,22,11,45,12.40
2006,04,22,11,46,12.50
2006,04,22,11,47,12.40
2006,04,22,11,48,12.40
2006,04,22,11,49,12.40
2006,04,22,11,50,12.30
2006,04,22,11,51,12.30
2006,04,22,11,52,12.30
2006,04,22,11,53,12.20
2006,04,22,11,54,12.20
2006,04,22,11,55,12.30
2006,04,22,11,56,12.30
2006,04,22,11,57,12.30
2006,04,22,11,58,12.30
2006,04,22,11,59,12.40
2006,04,22,12,00,12.50
2006,04,22,12,01,12.70
2006,04,22,12,02,12.80
2006,04,22,12,03,12.90
2006,04,22,12,04,12.90
2006,04,22,12,05,12.80
2006,04,22,12,06,12.70
2006,04,22,12,07,12.70
2006,04,22,12,08,12.70
2006,04,22,12,09,12.70
2006,04,22,12,10,12.70
2006,04,22,12,11,12.80
2006,04,22,12,12,12.80
2006,04,22,12,13,12.80
2006,04,22,12,14,12.90
2006,04,22,12,15,12.90
2006,04,22,12,16,12.90
2006,04,22,12,17,12.80
2006,04,22,12,18,12.70
2006,04,22,12,19,12.60
2006,04,22,12,20,12.50
2006,04,22,12,21,12.50
2006,04,22,12,22,12.40
2006,04,22,12,23,12.30
2006,04,22,12,24,12.40
2006,04,22,12,25,12.40
2006,04,22,12,26,12.40
2006,04,22,12,27,12.40
2006,04,22,12,28,12.40
2006,04,22,12,29,12.50
2006,04,22,12,30,12.50
2006,04,22,12,31,12.50
2006,04,22,12,32,12.60
2006,04,22,12,33,12.60
2006,04,22,12,34,12.60
2006,04,22,12,35,12.50
2006,04,22,12,36,12.50
2006,04,22,12,37,12.50
2006,04,22,12,38,12.60
2006,04,22,12,39,12.60
2006,04,22,12,40,12.60
2006,04,22,12,41,12.70
2006,04,22,12,42,12.70
2006,04,22,12,43,12.60
2006,04,22,12,44,12.50
2006,04,22,12,45,12.40
2006,04,22,12,46,12.40
2006,04,22,12,47,12.50
2006,04,22,12,48,12.60
2006,04,22,12,49,12.60
2006,04,22,12,50,12.50
2006,04,22,12,51,12.40
2006,04,22,12,52,12.40
2006,04,22,12,53,12.50
2006,04,22,12,54,12.50
2006,04,22,12,55,12.60
2006,04,22,12,56,12.60
2006,04,22,12,57,12.60
2006,04,22,12,58,12.60
2006,04,22,12,59,12.70
2006,04,22,13,00,12.70
2006,04,22,13,01,12.80
2006,04,22,13,02,12.80
2006,04,22,13,03,12.80
2006,04,22,13,04,12.80
2006,04,22,13,05,12.80
2006,04,22,13,06,12.80
2006,04,22,13,07,12.80
2006,04,22,13,08,12.80
2006,04,22,13,09,12.70
2006,04,22,13,10,12.60
2006,04,22,13,11,12.40
2006,04,22,13,12,12.30
2006,04,22,13,13,12.20
2006,04,22,13,14,12.10
2006,04,22,13,15,12.00
2006,04,22,13,16,12.10
2006,04,22,13,17,12.20
2006,04,22,13,18,12.30
2006,04,22,13,19,12.30
2006,04,22,13,20,12.30
2006,04,22,13,21,12.10
2006,04,22,13,22,12.00
2006,04,22,13,23,12.00
2006,04,22,13,24,12.10
2006,04,22,13,25,12.20
2006,04,22,13,26,12.30
2006,04,22,13,27,12.50
2006,04,22,13,28,12.60
2006,04,22,13,29,12.60
2006,04,22,13,30,12.70
2006,04,22,13,31,12.70
2006,04,22,13,32,12.80
2006,04,22,13,33,13.00
2006,04,22,13,34,13.10
2006,04,22,13,35,13.20
2006,04,22,13,36,13.20
2006,04,22,13,37,13.30
2006,04,22,13,38,13.30
2006,04,22,13,39,13.30
2006,04,22,13,40,13.30
2006,04,22,13,41,13.30
2006,04,22,13,42,13.20
2006,04,22,13,43,13.10
2006,04,22,13,44,13.10
2006,04,22,13,45,13.10
2006,04,22,13,46,13.30
2006,04,22,13,47,13.30
2006,04,22,13,48,13.40
2006,04,22,13,49,13.40
2006,04,22,13,50,13.40
2006,04,22,13,51,13.40
2006,04,22,13,52,13.30
2006,04,22,13,53,13.40
2006,04,22,13,54,13.50
2006,04,22,13,55,13.60
2006,04,22,13,56,13.70
2006,04,22,13,57,13.70
2006,04,22,13,58,13.80
2006,04,22,13,59,13.90
2006,04,22,14,00,13.90
2006,04,22,14,01,13.90
2006,04,22,14,02,13.90
2006,04,22,14,03,13.90
2006,04,22,14,04,14.00
2006,04,22,14,05,14.10
2006,04,22,14,06,14.20
2006,04,22,14,07,14.20
2006,04,22,14,08,14.30
2006,04,22,14,09,14.30
2006,04,22,14,10,14.30
2006,04,22,14,11,14.20
2006,04,22,14,12,14.20
2006,04,22,14,13,14.20
2006,04,22,14,14,14.20
2006,04,22,14,15,14.20
2006,04,22,14,16,14.20
2006,04,22,14,17,14.20
2006,04,22,14,18,14.20
2006,04,22,14,19,14.20
2006,04,22,14,20,14.10
2006,04,22,14,21,14.10
2006,04,22,14,22,14.10
2006,04,22,14,23,14.10
2006,04,22,14,24,14.10
2006,04,22,14,25,14.20
2006,04,22,14,26,14.30
2006,04,22,14,27,14.30
2006,04,22,14,28,14.30
2006,04,22,14,29,14.30
2006,04,22,14,30,14.30
2006,04,22,14,31,14.30
2006,04,22,14,32,14.30
2006,04,22,14,33,14.40
2006,04,22,14,34,14.40
2006,04,22,14,35,14.40
2006,04,22,14,36,14.30
2006,04,22,14,37,14.30
2006,04,22,14,38,14.20
2006,04,22,14,39,14.10
2006,04,22,14,40,14.00
2006,04,22,14,41,14.00
2006,04,22,14,42,14.00
2006,04,22,14,43,14.00
2006,04,22,14,44,14.00
2006,04,22,14,45,14.00
2006,04,22,14,46,14.00
2006,04,22,14,47,14.10
2006,04,22,14,48,14.10
2006,04,22,14,49,14.20
2006,04,22,14,50,14.20
2006,04,22,14,51,14.30
2006,04,22,14,52,14.30
2006,04,22,14,53,14.30
2006,04,22,14,54,14.20
2006,04,22,14,55,14.20
2006,04,22,14,56,14.20
2006,04,22,14,57,14.20
2006,04,22,14,58,14.20
2006,04,22,14,59,14.20
2006,04,22,15,00,14.20
2006,04,22,15,01,14.30
2006,04,22,15,02,14.20
2006,04,22,15,03,14.20
2006,04,22,15,04,14.20
2006,04,22,15,05,14.20
2006,04,22,15,06,14.20
2006,04,22,15,07,14.30
2006,04,22,15,08,14.30
2006,04,22,15,09,14.20
2006,04,22,15,10,14.20
2006,04,22,15,11,14.20
2006,04,22,15,12,14.10
2006,04,22,15,13,14.10
2006,04,22,15,14,14.10
2006,04,22,15,15,14.20
2006,04,22,15,16,14.20
2006,04,22,15,17,14.20
2006,04,22,15,18,14.20
2006,04,22,15,19,14.20
2006,04,22,15,20,14.20
2006,04,22,15,21,14.40
2006,04,22,15,22,14.50
2006,04,22,15,23,14.60
2006,04,22,15,24,14.70
2006,04,22,15,25,14.80
2006,04,22,15,26,14.80
2006,04,22,15,27,14.80
2006,04,22,15,28,14.80
2006,04,22,15,29,14.80
2006,04,22,15,30,14.80
2006,04,22,15,31,14.90
2006,04,22,15,32,15.00
2006,04,22,15,33,15.10
2006,04,22,15,34,15.30
2006,04,22,15,35,15.30
2006,04,22,15,36,15.30
2006,04,22,15,37,15.20
2006,04,22,15,38,15.20
2006,04,22,15,39,15.10
2006,04,22,15,40,15.10
2006,04,22,15,41,15.10
2006,04,22,15,42,15.10
2006,04,22,15,43,15.10
2006,04,22,15,44,15.10
2006,04,22,15,45,15.10
2006,04,22,15,46,15.10
2006,04,22,15,47,14.90
2006,04,22,15,48,14.80
2006,04,22,15,49,14.70
2006,04,22,15,50,14.70
2006,04,22,15,51,14.80
2006,04,22,15,52,14.80
2006,04,22,15,53,14.80
2006,04,22,15,54,14.90
2006,04,22,15,55,14.90
2006,04,22,15,56,14.90
2006,04,22,15,57,14.90
2006,04,22,15,58,14.80
2006,04,22,15,59,14.80
2006,04,22,16,00,14.80
2006,04,22,16,01,14.80
2006,04,22,16,02,14.80
2006,04,22,16,03,14.70
2006,04,22,16,04,14.60
2006,04,22,16,05,14.60
2006,04,22,16,06,14.70
2006,04,22,16,07,14.70
2006,04,22,16,08,14.80
2006,04,22,16,09,14.90
2006,04,22,16,10,15.00
2006,04,22,16,11,15.00
2006,04,22,16,12,15.10
2006,04,22,16,13,15.10
2006,04,22,16,14,15.00
2006,04,22,16,15,15.00
2006,04,22,16,16,15.00
2006,04,22,16,17,15.00
2006,04,22,16,18,14.90
2006,04,22,16,19,14.90
2006,04,22,16,20,14.80
2006,04,22,16,21,14.80
2006,04,22,16,22,14.70
2006,04,22,16,23,14.70
2006,04,22,16,24,14.70
2006,04,22,16,25,14.80
2006,04,22,16,26,14.90
2006,04,22,16,27,14.90
2006,04,22,16,28,15.00
2006,04,22,16,29,15.10
2006,04,22,16,30,15.10
2006,04,22,16,31,15.10
2006,04,22,16,32,15.10
2006,04,22,16,33,15.00
2006,04,22,16,34,15.00
2006,04,22,16,35,15.00
2006,04,22,16,36,15.00
2006,04,22,16,37,15.00
2006,04,22,16,38,15.00
2006,04,22,16,39,15.00
2006,04,22,16,40,15.10
2006,04,22,16,41,15.20
2006,04,22,16,42,15.20
2006,04,22,16,43,15.30
2006,04,22,16,44,15.30
2006,04,22,16,45,15.30
2006,04,22,16,46,15.30
2006,04,22,16,47,15.30
2006,04,22,16,48,15.30
2006,04,22,16,49,15.30
2006,04,22,16,50,15.20
2006,04,22,16,51,15.10
2006,04,22,16,52,15.10
2006,04,22,16,53,15.00
2006,04,22,16,54,14.90
2006,04,22,16,55,14.90
2006,04,22,16,56,15.00
2006,04,22,16,57,15.00
2006,04,22,16,58,15.00
2006,04,22,16,59,15.00
2006,04,22,17,00,15.00
2006,04,22,17,01,15.00
2006,04,22,17,02,15.00
2006,04,22,17,03,15.00
2006,04,22,17,04,15.00
2006,04,22,17,05,15.00
2006,04,22,17,06,15.00
2006,04,22,17,07,15.00
2006,04,22,17,08,14.90
2006,04,22,17,09,14.80
2006,04,22,17,10,14.80
2006,04,22,17,11,14.80
2006,04,22,17,12,14.80
2006,04,22,17,13,14.80
2006,04,22,17,14,14.80
2006,04,22,17,15,14.90
2006,04,22,17,16,14.90
2006,04,22,17,17,15.00
2006,04,22,17,18,15.00
2006,04,22,17,19,15.00
2006,04,22,17,20,15.10
2006,04,22,17,21,15.20
2006,04,22,17,22,15.20
2006,04,22,17,23,15.20
2006,04,22,17,24,15.10
2006,04,22,17,25,15.10
2006,04,22,17,26,15.10
2006,04,22,17,27,15.10
2006,04,22,17,28,15.10
2006,04,22,17,29,15.10
2006,04,22,17,30,15.10
2006,04,22,17,31,15.00
2006,04,22,17,32,15.10
2006,04,22,17,33,15.10
2006,04,22,17,34,15.20
2006,04,22,17,35,15.20
2006,04,22,17,36,15.20
2006,04,22,17,37,15.20
2006,04,22,17,38,15.20
2006,04,22,17,39,15.20
2006,04,22,17,40,15.20
2006,04,22,17,41,15.20
2006,04,22,17,42,15.20
2006,04,22,17,43,15.20
2006,04,22,17,44,15.20
2006,04,22,17,45,15.20
2006,04,22,17,46,15.20